Hourly Weather Bolshoy Bor

Today, 2 August, Monday

Time Temperature Precipitation Wind Pressure Humidity
00:00 +19°C° 0.4 mm 2 mps 739 mmHg 81%
01:00 +19°C° 0.4 mm 2 mps 739 mmHg 87%
02:00 +19°C° 0 mm 2 mps 738 mmHg 91%
03:00 +19°C° 0.6 mm 2 mps 737 mmHg 93%
04:00 +19°C° 0.6 mm 2 mps 736 mmHg 94%
05:00 +19°C° 0.6 mm 2 mps 735 mmHg 96%
06:00 +20°C° 1 mm 4 mps 734 mmHg 93%
07:00 +21°C° 1 mm 5 mps 734 mmHg 91%
08:00 +21°C° 1 mm 7 mps 733 mmHg 88%
09:00 +21°C° 0.9 mm 7 mps 733 mmHg 89%
10:00 +20°C° 0.9 mm 8 mps 733 mmHg 90%
11:00 +18°C° 0.9 mm 8 mps 733 mmHg 91%
12:00 +18°C° 0.1 mm 8 mps 734 mmHg 89%
13:00 +18°C° 0.1 mm 8 mps 735 mmHg 87%
14:00 +18°C° 0.1 mm 7 mps 737 mmHg 85%
15:00 +17°C° 0.2 mm 7 mps 737 mmHg 86%
16:00 +17°C° 0.2 mm 6 mps 738 mmHg 86%
17:00 +16°C° 0.2 mm 5 mps 739 mmHg 87%
18:00 +17°C° 0 mm 4 mps 739 mmHg 89%
19:00 +15°C° 0 mm 4 mps 739 mmHg 91%
20:00 +15°C° 0 mm 4 mps 740 mmHg 93%
21:00 +16°C° 0 mm 3 mps 740 mmHg 94%
22:00 +16°C° 0 mm 3 mps 740 mmHg 94%
23:00 +16°C° 0 mm 3 mps 741 mmHg 94%

Tomorrow, 3 August, Tuesday

Time Temperature Precipitation Wind Pressure Humidity
00:00 +14°C° 0 mm 3 mps 741 mmHg 94%
01:00 +13°C° 0 mm 3 mps 741 mmHg 95%
02:00 +13°C° 0 mm 3 mps 741 mmHg 95%
03:00 +13°C° 0.1 mm 3 mps 741 mmHg 94%
04:00 +13°C° 0.1 mm 3 mps 741 mmHg 94%
05:00 +13°C° 0.1 mm 3 mps 741 mmHg 93%
06:00 +14°C° 0 mm 4 mps 742 mmHg 87%
07:00 +15°C° 0 mm 4 mps 742 mmHg 80%
08:00 +16°C° 0 mm 5 mps 742 mmHg 74%
09:00 +19°C° 0 mm 5 mps 743 mmHg 68%
10:00 +20°C° 0 mm 6 mps 743 mmHg 61%
11:00 +21°C° 0 mm 6 mps 743 mmHg 55%
12:00 +21°C° 0 mm 6 mps 743 mmHg 54%
13:00 +21°C° 0 mm 6 mps 743 mmHg 53%
14:00 +21°C° 0 mm 5 mps 743 mmHg 53%
15:00 +21°C° 0 mm 5 mps 743 mmHg 55%
16:00 +21°C° 0 mm 5 mps 743 mmHg 58%
17:00 +21°C° 0 mm 5 mps 743 mmHg 60%
18:00 +19°C° 0.1 mm 4 mps 744 mmHg 69%
19:00 +18°C° 0.1 mm 3 mps 744 mmHg 77%
20:00 +16°C° 0.1 mm 3 mps 744 mmHg 86%
21:00 +15°C° 0 mm 2 mps 744 mmHg 87%
22:00 +15°C° 0 mm 2 mps 745 mmHg 89%
23:00 +14°C° 0 mm 2 mps 745 mmHg 91%

Day after tomorrow, 4 August, Wednesday

Time Temperature Precipitation Wind Pressure Humidity
00:00 +14°C° 0 mm 2 mps 745 mmHg 91%
01:00 +13°C° 0 mm 2 mps 745 mmHg 91%
02:00 +13°C° 0 mm 1 mps 745 mmHg 91%
03:00 +13°C° 0 mm 1 mps 746 mmHg 91%
04:00 +13°C° 0 mm 1 mps 746 mmHg 91%
05:00 +12°C° 0 mm 1 mps 746 mmHg 91%
06:00 +14°C° 0 mm 1 mps 746 mmHg 85%
07:00 +15°C° 0 mm 1 mps 747 mmHg 79%
08:00 +18°C° 0 mm 1 mps 747 mmHg 73%
09:00 +19°C° 0.1 mm 1 mps 747 mmHg 69%
10:00 +18°C° 0.1 mm 2 mps 747 mmHg 65%
11:00 +19°C° 0.1 mm 2 mps 747 mmHg 61%
12:00 +20°C° 0 mm 2 mps 747 mmHg 56%
13:00 +21°C° 0 mm 2 mps 747 mmHg 51%
14:00 +23°C° 0 mm 2 mps 747 mmHg 46%
15:00 +23°C° 0 mm 1 mps 747 mmHg 46%
16:00 +23°C° 0 mm 1 mps 747 mmHg 47%
17:00 +23°C° 0 mm 1 mps 746 mmHg 47%
18:00 +21°C° 0 mm 1 mps 746 mmHg 53%
19:00 +20°C° 0 mm 1 mps 746 mmHg 58%
20:00 +16°C° 0 mm 0 mps 747 mmHg 64%
21:00 +16°C° 0 mm 0 mps 747 mmHg 64%
22:00 +16°C° 0 mm 1 mps 747 mmHg 64%
23:00 +16°C° 0 mm 1 mps 747 mmHg 64%

5 August, Thursday

Time Temperature Precipitation Wind Pressure Humidity
00:00 +16°C° 0 mm 1 mps 747 mmHg 65%
01:00 +16°C° 0 mm 1 mps 747 mmHg 65%
02:00 +16°C° 0 mm 1 mps 747 mmHg 66%
03:00 +15°C° 0 mm 1 mps 747 mmHg 69%
04:00 +15°C° 0 mm 1 mps 747 mmHg 71%
05:00 +15°C° 0 mm 1 mps 747 mmHg 74%
06:00 +16°C° 0 mm 1 mps 747 mmHg 71%
07:00 +18°C° 0 mm 1 mps 747 mmHg 69%
08:00 +19°C° 0 mm 1 mps 747 mmHg 66%
09:00 +19°C° 0 mm 2 mps 747 mmHg 65%
10:00 +20°C° 0 mm 2 mps 747 mmHg 63%
11:00 +21°C° 0 mm 2 mps 746 mmHg 62%
12:00 +22°C° 0 mm 3 mps 746 mmHg 58%
13:00 +24°C° 0 mm 3 mps 746 mmHg 55%
14:00 +25°C° 0 mm 3 mps 746 mmHg 51%
15:00 +25°C° 0 mm 3 mps 745 mmHg 52%
16:00 +25°C° 0 mm 3 mps 745 mmHg 52%
17:00 +25°C° 0 mm 3 mps 745 mmHg 53%
18:00 +24°C° 0 mm 3 mps 744 mmHg 55%
19:00 +22°C° 0 mm 4 mps 744 mmHg 57%
20:00 +21°C° 0 mm 4 mps 744 mmHg 59%
21:00 +21°C° 0 mm 5 mps 743 mmHg 59%
22:00 +21°C° 0 mm 5 mps 743 mmHg 59%
23:00 +20°C° 0 mm 6 mps 743 mmHg 59%

6 August, Friday

Time Temperature Precipitation Wind Pressure Humidity
00:00 +20°C° 0 mm 6 mps 742 mmHg 61%
01:00 +20°C° 0 mm 6 mps 741 mmHg 63%
02:00 +20°C° 0 mm 7 mps 741 mmHg 65%
03:00 +18°C° 2 mm 7 mps 740 mmHg 75%
04:00 +17°C° 2 mm 7 mps 740 mmHg 84%
05:00 +16°C° 2 mm 7 mps 739 mmHg 93%
06:00 +16°C° 1.3 mm 8 mps 739 mmHg 94%
07:00 +16°C° 1.3 mm 8 mps 738 mmHg 94%
08:00 +17°C° 1.3 mm 9 mps 738 mmHg 94%
09:00 +17°C° 0.2 mm 8 mps 738 mmHg 93%
10:00 +18°C° 0.2 mm 7 mps 738 mmHg 91%
11:00 +20°C° 0.2 mm 6 mps 738 mmHg 90%
12:00 +21°C° 0.3 mm 6 mps 738 mmHg 85%
13:00 +21°C° 0.3 mm 6 mps 739 mmHg 79%
14:00 +21°C° 0.3 mm 6 mps 739 mmHg 74%
15:00 +22°C° 0 mm 6 mps 739 mmHg 71%
16:00 +22°C° 0 mm 6 mps 739 mmHg 68%
17:00 +23°C° 0 mm 6 mps 739 mmHg 64%
18:00 +21°C° 0 mm 6 mps 740 mmHg 69%
19:00 +20°C° 0 mm 5 mps 740 mmHg 73%
20:00 +19°C° 0 mm 5 mps 740 mmHg 77%
21:00 +18°C° 0 mm 4 mps 740 mmHg 80%
22:00 +17°C° 0 mm 4 mps 740 mmHg 83%
23:00 +17°C° 0 mm 4 mps 741 mmHg 87%

7 August, Saturday

Time Temperature Precipitation Wind Pressure Humidity
00:00 +15°C° 0 mm 4 mps 741 mmHg 88%
01:00 +15°C° 0 mm 4 mps 741 mmHg 89%
02:00 +16°C° 0 mm 3 mps 741 mmHg 90%
03:00 +16°C° 0 mm 3 mps 741 mmHg 88%
04:00 +16°C° 0 mm 3 mps 742 mmHg 87%
05:00 +16°C° 0 mm 3 mps 742 mmHg 85%
06:00 +17°C° 0 mm 4 mps 742 mmHg 80%
07:00 +18°C° 0 mm 4 mps 743 mmHg 75%
08:00 +20°C° 0 mm 4 mps 743 mmHg 70%
09:00 +21°C° 0 mm 4 mps 743 mmHg 65%
10:00 +23°C° 0 mm 5 mps 743 mmHg 59%
11:00 +25°C° 0 mm 5 mps 743 mmHg 54%
12:00 +26°C° 0 mm 5 mps 744 mmHg 52%
13:00 +26°C° 0 mm 5 mps 744 mmHg 50%
14:00 +27°C° 0 mm 5 mps 744 mmHg 48%
15:00 +26°C° 0.1 mm 4 mps 744 mmHg 54%
16:00 +25°C° 0.1 mm 3 mps 744 mmHg 59%
17:00 +25°C° 0.1 mm 2 mps 744 mmHg 65%
18:00 +24°C° 0 mm 2 mps 744 mmHg 68%
19:00 +23°C° 0 mm 2 mps 745 mmHg 72%
20:00 +22°C° 0 mm 1 mps 745 mmHg 75%
21:00 +21°C° 0 mm 1 mps 745 mmHg 75%
22:00 +21°C° 0 mm 1 mps 745 mmHg 76%
23:00 +21°C° 0 mm 1 mps 746 mmHg 76%
Show more

We Need Your Consent

Meteoprog and our Service Providers may store and access personal data such as cookies, device identifiers or other similar technologies on your device and process such data to personalise content and ads, as well as provide social media features and to analyse the traffic.

  • Store and/or access information on your device

    Cookies, device identifiers or other information can be stored or accessed on your device for the purposes indicated above.

  • Personalised ads and content, ad and content measurement, audience insights, and products development

    Ads and content can be personalised based on a profile. More data can be added to better personalise ads and content. Ad and content performance can be measured. Insights about the audience who saw the ads and content can be derived. Such data can be used to develop or improve user’s experience, systems and software.

By clicking ‘I Agree’ you will allow the use of indicated cookies, device identifiers, web beacons or other similar technologies. Your settings can be changed in the browser on your device.

For certain purposes, legitimate interests may be relied on, rather than consent. You can read more about this in our Privacy and Cookie Policy.